Duluth, MN

6:55 PM CDT on April 26, 2017 (GMT -0500)
Duluth International

Weather History for KDLH - May, 2013

Change the Weather History Date:

Thursday, May 16, 2013

  Actual Average Record
Temperature  
Mean Temperature 58 °F 52 °F  
Max Temperature 69 °F 62 °F 84 °F (1962)
Min Temperature 47 °F 41 °F 20 °F (1929)
Degree Days  
Heating Degree Days 7 14  
Month to date heating degree days 291 254  
Since 1 July heating degree days 9040 9093  
Cooling Degree Days 0 0  
Month to date cooling degree days 1 0  
Year to date cooling degree days 1 0  
Growing Degree Days 8 (Base 50)    
Moisture  
Dew Point 33 °F    
Average Humidity 43    
Maximum Humidity 61    
Minimum Humidity 24    
Precipitation  
Precipitation 0.00 in 0.11 in 0.86 in (1872)
Month to date precipitation 0.29 1.62  
Year to date precipitation 9.92 7.31  
Snow  
Snow 0.00 in 0.00 in 1.70 in (1950)
Month to date snowfall T 0.4  
Since 1 July snowfall 129.4 86.1  
Snow Depth 0.00 in    
Sea Level Pressure  
Sea Level Pressure 29.98 in    
Wind  
Wind Speed 10 mph (East)    
Max Wind Speed 16 mph    
Max Gust Speed 21 mph    
Visibility 10 miles    
Events      
T = Trace of Precipitation, MM = Missing Value Source: NWS Daily Summary

Daily Weather History Graph

Daily Weather History Graph

Search for Another Location

Airport or City:

Trip Planner

Search our weather history database for the weather conditions in past years. The results will help you decide how hot, cold, wet, or windy it might be!

Date:

Astronomy

May. 16, 2013 Rise Set
Actual Time 5:32 AM CDT 8:38 PM CDT
Civil Twilight 4:56 AM CDT 9:14 PM CDT
Nautical Twilight 4:09 AM CDT 10:01 PM CDT
Astronomical Twilight 3:12 AM CDT 10:59 PM CDT
Moon 11:13 AM CDT (5/16) 12:53 AM CDT (5/16)
Length of Visible Light 16h 18m
Length of Day
15h 06m
Waxing Crescent, 36% of the Moon is Illuminated
May 16
Waxing Crescent
May 17
First Quarter
May 24
Full
May 31
Last Quarter
Jun 8
New

Hourly Weather History & Observations

Time (CDT) Temp. Dew Point Humidity Pressure Visibility Wind Dir Wind Speed Gust Speed Precip Events Conditions
12:55 AM 57.0 °F 39.9 °F 53% 29.86 in 10.0 mi NNW 5.8 mph - N/A   Partly Cloudy
1:55 AM 59.0 °F 39.0 °F 48% 29.88 in 10.0 mi NNW 5.8 mph - N/A   Partly Cloudy
2:55 AM 57.0 °F 37.9 °F 49% 29.88 in 10.0 mi North 5.8 mph - N/A   Clear
3:55 AM 54.0 °F 37.9 °F 55% 29.90 in 10.0 mi North 8.1 mph - N/A   Clear
4:55 AM 50.0 °F 37.0 °F 61% 29.92 in 10.0 mi East 6.9 mph - N/A   Clear
5:55 AM 50.0 °F 36.0 °F 59% 29.94 in 10.0 mi NNE 5.8 mph - N/A   Partly Cloudy
6:55 AM 54.0 °F 35.1 °F 49% 29.95 in 10.0 mi NE 6.9 mph - N/A   Clear
7:55 AM 57.9 °F 34.0 °F 41% 29.97 in 10.0 mi East 12.7 mph - N/A   Clear
8:55 AM 57.9 °F 35.1 °F 42% 30.00 in 10.0 mi East 12.7 mph - N/A   Clear
9:55 AM 57.9 °F 35.1 °F 42% 30.02 in 10.0 mi East 10.4 mph - N/A   Clear
10:55 AM 62.1 °F 34.0 °F 35% 30.02 in 10.0 mi East 9.2 mph - N/A   Clear
11:55 AM 63.0 °F 32.0 °F 31% 30.02 in 10.0 mi East 8.1 mph - N/A   Clear
12:55 PM 64.9 °F 30.9 °F 28% 30.01 in 10.0 mi East 10.4 mph - N/A   Clear
1:55 PM 66.9 °F 30.0 °F 25% 30.00 in 10.0 mi East 10.4 mph - N/A   Clear
2:55 PM 66.0 °F 30.9 °F 27% 30.00 in 10.0 mi ESE 10.4 mph 16.1 mph N/A   Partly Cloudy
3:55 PM 66.9 °F 28.0 °F 23% 30.00 in 10.0 mi SE 9.2 mph - N/A   Partly Cloudy
4:55 PM 66.2 °F 28.4 °F 24% 29.98 in 10.0 mi ESE 11.5 mph - N/A   Partly Cloudy
5:55 PM 63.0 °F 28.0 °F 27% 30.01 in 10.0 mi ESE 11.5 mph - N/A   Scattered Clouds
6:55 PM 61.0 °F 30.9 °F 32% 30.01 in 10.0 mi East 10.4 mph - N/A   Scattered Clouds
7:55 PM 57.0 °F 32.0 °F 39% 30.03 in 10.0 mi East 9.2 mph - N/A   Scattered Clouds
8:55 PM 53.1 °F 30.9 °F 43% 30.04 in 10.0 mi East 12.7 mph - N/A   Scattered Clouds
9:55 PM 51.1 °F 30.9 °F 46% 30.05 in 10.0 mi East 11.5 mph - N/A   Scattered Clouds
10:55 PM 50.0 °F 30.9 °F 48% 30.05 in 10.0 mi East 10.4 mph - N/A   Mostly Cloudy
11:55 PM 50.0 °F 32.0 °F 50% 30.05 in 10.0 mi East 11.5 mph - N/A   Partly Cloudy